Regional Weather Roundup
Issued by NWS

Home | Current Version | Previous Version | Graphics & Text | Print | Product List | Glossary On
Versions: 1 2 3 4 5 6 7 8 9 10 11 12 13 14 15 16 17 18 19 20 21 22 23 24 25 26 27 28 29 30 31 32 33 34 35 36 37 38 39 40 41 42 43 44 45 46 47 48 49 50
000
ASUS43 KDTX 211310
RWRMI
MICHIGAN HOURLY REGIONAL WEATHER ROUNDUP
NATIONAL WEATHER SERVICE DETROIT/PONTIAC MI
900 AM EDT THU AUG 21 2014

NOTE: "FAIR" INDICATES FEW OR NO CLOUDS BELOW 12,000 FEET WITH NO
SIGNIFICANT WEATHER AND/OR OBSTRUCTION TO VISIBILITY.

MIZ047>049-052>055-059>063-066>070-074>076-081>083-211400-
SOUTHEAST LOWER MICHIGAN

CITY           SKY/WX    TMP DP  RH WIND       PRES   REMARKS
ADRIAN         MOSUNNY   70  67  90 CALM      29.99R FOG
ALMA           PTSUNNY   63  62  97 NE5       30.00R
ANN ARBOR      MOSUNNY   72  63  73 CALM      29.98F
BAD AXE        CLOUDY    65  65 100 CALM      30.00S
CARO           CLOUDY    65  64  97 NE3       29.99S
DETROIT CITY   SUNNY     72  64  76 E6        29.99R
DETROIT        PTSUNNY   72  64  76 NE3       29.98S
FLINT          MOSUNNY   69  62  78 NE7       29.99S
GROSSE ILE     MOSUNNY   72  66  83 E3        29.97S
HILLSDALE      SUNNY     73  71  93 W5        29.99S
HOWELL         SUNNY     65  64  94 CALM      29.99S

CITY           SKY/WX    TMP DP  RH WIND       PRES   REMARKS
JACKSON        CLOUDY    69  67  93 CALM      29.99R FOG
LAMBERTVILLE   MOSUNNY   73  68  83 W5        29.98S
LANSING        MOSUNNY   66  62  87 NE5       29.99S
LAPEER         FOG       63  62  97 E5        30.00S VSB 1
MASON          MOSUNNY   66  65  97 CALM      29.99S
MONROE         MOSUNNY   70  66  88 CALM      29.97R
MT. CLEMENS    MOSUNNY   68  63  83 NE5       29.98R
PONTIAC        MOSUNNY   68  61  78 NE5       29.99S
PORT HOPE        N/A     67  61  81 CALM      29.98R
PORT HURON     PTSUNNY   66  66 100 N6        29.99F
TRI CITIES     CLOUDY    64  61  90 N7        30.01R
TROY           SUNNY     69  62  80 NE5       30.01R
SAGINAW HB     SUNNY     64  64 100 N5        29.99S
$$
MIZ043>046-050>051-056>058-064>065-071>073-077>080-211400-
SOUTHWEST LOWER MICHIGAN

CITY           SKY/WX    TMP DP  RH WIND       PRES   REMARKS
BATTLE CREEK   MOSUNNY   72  68  87 CALM      29.98S
BENTON HARBOR  CLOUDY    70  67  90 S5        29.97R
BIG RAPIDS     CLOUDY    59  59 100 NE5       29.99S
COLDWATER      SUNNY     74  69  85 NW3       29.98R
FREMONT        FAIR      65  63  91 E3        29.98R
HOLLAND        CLOUDY    72  68  87 CALM      29.96S FOG
GRAND RAPIDS   MOSUNNY   69  66  90 E6        29.98R
IONIA          PTSUNNY   64  62  94 E6        29.98F
KALAMAZOO      MOSUNNY   74  67  78 W5        29.97S
LUDINGTON      PTSUNNY   61  60  97 E3        29.98R
MARSHALL       CLOUDY    69  68  94 CALM      29.97S FOG
MOUNT PLEASANT CLOUDY    62  61  97 CALM      30.00R
MUSKEGON       PTSUNNY   68  62  81 E6        29.97S
SOUTH HAVEN    PTSUNNY   73  70  88 CALM      29.96R
$$
MIZ016>042-211400-
NORTHERN LOWER MICHIGAN

CITY           SKY/WX    TMP DP  RH WIND       PRES   REMARKS
ALPENA         CLOUDY    65  62  90 NW5       29.99R
BEAVER ISLAND  CLOUDY    63  62  96 CALM      30.00R
BELLAIRE       CLOUDY    64  62  92 CALM      29.99R
CADILLAC       MOSUNNY   62  60  94 E5        30.00F
CHARLEVOIX     CLOUDY    64  64  98 CALM      30.02S
FRANKFORT      SUNNY     64  60  87 E3        29.98S
GAYLORD        CLOUDY    62  59  90 NW3       30.00R
GRAYLING       PTSUNNY   64  62  92 W6        30.01R
HARBOR SPRINGS CLOUDY    65  61  88 CALM      29.99S
HOUGHTON LAKE  PTSUNNY   65  60  84 N5        30.01R
MANISTEE       PTSUNNY   59  57  94 SE3       29.99R
OSCODA         PTSUNNY   65  63  91 NW3       29.98S
PELLSTON       CLOUDY    65  62  90 NW7       29.99S
ROGERS CITY    CLOUDY    62  62 100 NW7       30.01R FOG
TRAVERSE CITY  PTSUNNY   66  61  84 SE3       29.98F
$$
MIZ007>008-015-211400-
EASTERN UPPER MICHIGAN

CITY           SKY/WX    TMP DP  RH WIND       PRES   REMARKS
KINROSS        CLOUDY    59  57  94 N3        29.99R VSB 3/4
MACKINAC ISLAN CLOUDY    60  60 100 N5        29.99R
NEWBERRY       CLOUDY    60  59  97 CALM      30.00R
S. S. MARIE    CLOUDY    60  57  89 NW6       29.99R
MUNISING         N/A     61  58  90 CALM      29.99R
$$
MIZ004>006-011>014-085-211400-
CENTRAL UPPER MICHIGAN

CITY           SKY/WX    TMP DP  RH WIND       PRES   REMARKS
MANISTIQUE     CLOUDY    60  60 100 NE3       29.99R FOG
ESCANABA       CLOUDY    61  57  88 NE7       29.98S VSB 1/4
MENOMINEE      PTSUNNY   66  63  88 S3        29.98R
SAWYER-GWINN   CLOUDY    59  59 100 NE3       29.99S FOG
$$
MIZ001>003-009>011-084-211400-
WESTERN UPPER MICHIGAN

CITY           SKY/WX    TMP DP  RH WIND       PRES   REMARKS
IRON MOUNTAIN  CLOUDY    63  60  90 S3        29.99R
HOUGHTON       FOG       60  59  96 E3        29.97F VSB<1/4
COPPER HARBOR    N/A     57  56  96 CALM      29.99R
$$

ABBREVIATIONS USED IN REMARKS
   TC - TEMPERATURE IN CELSIUS
  WCI - WIND CHILL INDEX
   HX - HEAT INDEX
  VSB - VISIBILITY



USA.gov is the U.S. government's official web portal to all federal, state and local government web resources and services.